Weather History for KAWG - February, 2013

Change the Weather History Date:

Friday, February 1, 2013

  Actual Average Record
Temperature  
Mean Temperature 8 °F -  
Max Temperature 21 °F 31 °F 48 °F (2003)
Min Temperature -4 °F 18 °F -4 °F (2013)
Degree Days  
Heating Degree Days 56    
Moisture  
Dew Point -2 °F    
Average Humidity 70    
Maximum Humidity 80    
Minimum Humidity 56    
Precipitation  
Precipitation 0.00 in - - ()
Sea Level Pressure  
Sea Level Pressure 30.30 in    
Wind  
Wind Speed 12 mph (WSW)    
Max Wind Speed 22 mph    
Max Gust Speed 26 mph    
Visibility 10 miles    
Events      
Averages and records for this station are not official NWS values.
T = Trace of Precipitation, MM = Missing Value Source: NWS Daily Summary

Daily Weather History Graph

Daily Weather History Graph

Search for Another Location

Airport or City:

Trip Planner

Search our weather history database for the weather conditions in past years. The results will help you decide how hot, cold, wet, or windy it might be!

Date:

Astronomy

Feb. 01, 2013 Rise Set
Actual Time 7:17 AM CST 5:23 PM CST
Civil Twilight 6:48 AM CST 5:52 PM CST
Nautical Twilight 6:15 AM CST 6:25 PM CST
Astronomical Twilight 5:43 AM CST 6:58 PM CST
Moon 11:35 PM CST (2/1) 9:46 AM CST (2/1)
Length of Visible Light 11h 04m
Length of Day
10h 05m
Waning Gibbous, 70% of the Moon is Illuminated
Feb 1
Waning Gibbous
Feb 3
Last Quarter
Feb 10
New
Feb 17
First Quarter
Feb 25
Full

Hourly Weather History & Observations

Time (CST) Temp. Windchill Dew Point Humidity Pressure Visibility Wind Dir Wind Speed Gust Speed Precip Events Conditions
12:15 AM 1.4 °F -21.0 °F -5.8 °F 72% 30.34 in 10.0 mi WNW 21.9 mph 26.5 mph N/A   Overcast
12:35 AM 1.4 °F -18.8 °F -5.8 °F 72% 30.35 in 10.0 mi WNW 17.3 mph - N/A   Overcast
12:55 AM 1.4 °F -18.2 °F -7.6 °F 66% 30.35 in 10.0 mi WNW 16.1 mph 24.2 mph N/A   Overcast
1:15 AM 1.4 °F -17.6 °F -7.6 °F 66% 30.36 in 10.0 mi WNW 15.0 mph - N/A   Scattered Clouds
1:35 AM 1.4 °F -18.2 °F -7.6 °F 66% 30.36 in 10.0 mi WNW 16.1 mph 20.7 mph N/A   Clear
1:55 AM -0.4 °F -20.5 °F -7.6 °F 72% 30.36 in 10.0 mi WNW 16.1 mph - N/A   Clear
2:15 AM -0.4 °F -16.7 °F -7.6 °F 72% 30.37 in 10.0 mi WNW 10.4 mph - N/A   Clear
2:35 AM -0.4 °F -14.7 °F -7.6 °F 72% 30.37 in 10.0 mi West 8.1 mph - N/A   Clear
2:55 AM -0.4 °F -16.7 °F -7.6 °F 72% 30.37 in 10.0 mi West 10.4 mph - N/A   Clear
3:15 AM -0.4 °F -16.7 °F -7.6 °F 72% 30.38 in 10.0 mi West 10.4 mph - N/A   Clear
3:35 AM -0.4 °F -14.7 °F -7.6 °F 72% 30.37 in 10.0 mi West 8.1 mph - N/A   Mostly Cloudy
3:55 AM -0.4 °F -15.7 °F -7.6 °F 72% 30.38 in 10.0 mi West 9.2 mph - N/A   Overcast
4:15 AM -2.2 °F -18.0 °F -7.6 °F 78% 30.38 in 10.0 mi West 9.2 mph - N/A   Mostly Cloudy
4:35 AM -2.2 °F -18.0 °F -9.4 °F 71% 30.38 in 10.0 mi WNW 9.2 mph - N/A   Scattered Clouds
4:55 AM -2.2 °F -19.9 °F -9.4 °F 71% 30.38 in 10.0 mi WNW 11.5 mph - N/A   Clear
5:15 AM -2.2 °F -18.0 °F -9.4 °F 71% 30.38 in 10.0 mi West 9.2 mph - N/A   Clear
5:35 AM -2.2 °F -18.0 °F -9.4 °F 71% 30.37 in 10.0 mi WNW 9.2 mph - N/A   Clear
6:15 AM -4.0 °F -20.2 °F -9.4 °F 78% 30.38 in 10.0 mi WNW 9.2 mph - N/A   Clear
6:35 AM -4.0 °F -17.8 °F -9.4 °F 78% 30.38 in 10.0 mi West 6.9 mph - N/A   Clear
6:55 AM -4.0 °F -16.3 °F -9.4 °F 78% 30.39 in 10.0 mi West 5.8 mph - N/A   Clear
7:15 AM -4.0 °F -17.8 °F -9.4 °F 78% 30.39 in 10.0 mi WNW 6.9 mph - N/A   Clear
7:35 AM -4.0 °F -17.8 °F -9.4 °F 78% 30.40 in 10.0 mi WNW 6.9 mph - N/A   Clear
8:15 AM -2.2 °F -14.2 °F -9.4 °F 71% 30.41 in 10.0 mi West 5.8 mph - N/A   Clear
8:35 AM -2.2 °F -16.8 °F -9.4 °F 71% 30.41 in 10.0 mi West 8.1 mph - N/A   Clear
8:55 AM -2.2 °F -18.9 °F -9.4 °F 71% 30.41 in 10.0 mi West 10.4 mph - N/A   Clear
9:15 AM -0.4 °F -15.7 °F -9.4 °F 66% 30.41 in 10.0 mi West 9.2 mph - N/A   Clear
9:35 AM -0.4 °F -10.4 °F -9.4 °F 66% 30.40 in 10.0 mi WNW 4.6 mph - N/A   Clear
9:55 AM -0.4 °F -13.4 °F -9.4 °F 66% 30.41 in 10.0 mi West 6.9 mph - N/A   Clear
10:15 AM 1.4 °F -11.3 °F -9.4 °F 61% 30.41 in 10.0 mi WNW 6.9 mph - N/A   Clear
10:35 AM 1.4 °F -9.9 °F -9.4 °F 61% 30.41 in 10.0 mi West 5.8 mph - N/A   Clear
10:55 AM 1.4 °F -11.3 °F -9.4 °F 61% 30.41 in 10.0 mi West 6.9 mph - N/A   Clear
11:15 AM 3.2 °F -10.3 °F -7.6 °F 61% 30.41 in 10.0 mi WSW 8.1 mph - N/A   Clear
11:35 AM 3.2 °F -10.3 °F -7.6 °F 61% 30.40 in 10.0 mi SSW 8.1 mph - N/A   Clear
11:55 AM 5.0 °F -6.9 °F -5.8 °F 61% 30.38 in 10.0 mi SSW 6.9 mph - N/A   Clear
12:15 PM 5.0 °F -8.1 °F -5.8 °F 61% 30.37 in 10.0 mi SSW 8.1 mph - N/A   Clear
12:35 PM 5.0 °F -2.1 °F -7.6 °F 56% 30.35 in 10.0 mi South 3.5 mph - N/A   Mostly Cloudy
12:55 PM 5.0 °F -8.1 °F -5.8 °F 61% 30.36 in 10.0 mi WSW 8.1 mph - N/A   Overcast
1:15 PM 6.8 °F -8.6 °F -4.0 °F 61% 30.35 in 10.0 mi SW 11.5 mph - N/A   Overcast
1:35 PM 6.8 °F -8.6 °F -2.2 °F 67% 30.34 in 10.0 mi SW 11.5 mph - N/A   Overcast
1:55 PM 6.8 °F -6.9 °F -2.2 °F 67% 30.32 in 10.0 mi SW 9.2 mph - N/A   Overcast
2:15 PM 8.6 °F -3.7 °F -0.4 °F 67% 30.31 in 10.0 mi SW 8.1 mph - N/A   Overcast
2:35 PM 8.6 °F -2.6 °F -2.2 °F 62% 30.30 in 10.0 mi SW 6.9 mph - N/A   Overcast
3:15 PM 8.6 °F -2.6 °F -0.4 °F 67% 30.30 in 10.0 mi SSW 6.9 mph - N/A   Overcast
3:35 PM 10.4 °F -3.3 °F -0.4 °F 62% 30.29 in 10.0 mi South 10.4 mph - N/A   Overcast
4:15 PM 10.4 °F -1.5 °F 1.4 °F 67% 30.27 in 10.0 mi South 8.1 mph - N/A   Overcast
4:35 PM 10.4 °F -1.5 °F 1.4 °F 67% 30.26 in 10.0 mi South 8.1 mph - N/A   Overcast
4:55 PM 10.4 °F -2.4 °F 1.4 °F 67% 30.25 in 10.0 mi South 9.2 mph - N/A   Overcast
5:15 PM 10.4 °F -4.8 °F 1.4 °F 67% 30.23 in 10.0 mi South 12.7 mph - N/A   Overcast
5:35 PM 12.2 °F 0.7 °F 3.2 °F 67% 30.23 in 10.0 mi South 8.1 mph - N/A   Overcast
5:55 PM 12.2 °F 1.7 °F 3.2 °F 67% 30.22 in 10.0 mi South 6.9 mph - N/A   Overcast
6:15 PM 12.2 °F -0.2 °F 3.2 °F 67% 30.20 in 10.0 mi South 9.2 mph - N/A   Overcast
6:35 PM 12.2 °F -1.0 °F 5.0 °F 73% 30.19 in 10.0 mi South 10.4 mph - N/A   Overcast
6:55 PM 12.2 °F 1.7 °F 5.0 °F 73% 30.18 in 10.0 mi South 6.9 mph - N/A   Overcast
7:15 PM 14.0 °F 2.9 °F 6.8 °F 73% 30.18 in 10.0 mi South 8.1 mph - N/A   Overcast
7:35 PM 14.0 °F 2.9 °F 6.8 °F 73% 30.16 in 10.0 mi South 8.1 mph - N/A   Overcast
7:55 PM 15.8 °F 5.1 °F 8.6 °F 73% 30.15 in 10.0 mi South 8.1 mph - N/A   Overcast
8:15 PM 15.8 °F 2.7 °F 8.6 °F 73% 30.15 in 10.0 mi South 11.5 mph - N/A   Overcast
8:35 PM 17.6 °F 5.0 °F 10.4 °F 73% 30.14 in 10.0 mi South 11.5 mph - N/A   Overcast
8:55 PM 17.6 °F 6.4 °F 10.4 °F 73% 30.14 in 10.0 mi South 9.2 mph - N/A   Mostly Cloudy
9:15 PM 17.6 °F 4.3 °F 10.4 °F 73% 30.13 in 10.0 mi SSW 12.7 mph - N/A   Overcast
9:35 PM 17.6 °F 3.7 °F 10.4 °F 73% 30.12 in 10.0 mi SSW 13.8 mph - N/A   Overcast
9:55 PM 19.4 °F 5.5 °F 12.2 °F 74% 30.12 in 10.0 mi SSW 15.0 mph - N/A   Overcast
10:15 PM 19.4 °F 5.0 °F 12.2 °F 74% 30.11 in 10.0 mi SSW 16.1 mph - N/A   Overcast
10:35 PM 21.2 °F 7.8 °F 14.0 °F 74% 30.11 in 10.0 mi SSW 15.0 mph - N/A   Overcast
10:55 PM 21.2 °F 9.5 °F 14.0 °F 74% 30.11 in 10.0 mi SSW 11.5 mph - N/A   Overcast
11:15 PM 21.2 °F 10.1 °F 14.0 °F 74% 30.11 in 10.0 mi SW 10.4 mph - N/A   Overcast
11:35 PM 21.2 °F 8.9 °F 15.8 °F 80% 30.10 in 10.0 mi SSW 12.7 mph - N/A   Overcast
11:55 PM 21.2 °F 8.3 °F 15.8 °F 80% 30.08 in 10.0 mi SSW 13.8 mph - N/A   Overcast